TimeEST,TemperatureF,Dew PointF,Humidity,Sea Level PressureIn,VisibilityMPH,Wind Direction,Wind SpeedMPH,Gust SpeedMPH,PrecipitationIn,Events,Conditions,WindDirDegrees,DateUTC
12:53 AM,24.1,18.0,77,30.33,10.0,Calm,Calm,-,N/A,,Clear,0,2013-02-10 05:53:00
1:53 AM,24.1,18.0,77,30.31,10.0,Calm,Calm,-,N/A,,Clear,0,2013-02-10 06:53:00
2:53 AM,25.0,17.1,72,30.29,10.0,SE,4.6,-,N/A,,Clear,140,2013-02-10 07:53:00
3:53 AM,26.1,17.1,69,30.26,10.0,SSE,10.4,-,N/A,,Clear,150,2013-02-10 08:53:00
4:53 AM,26.1,17.1,69,30.25,10.0,SSE,15.0,-,N/A,,Clear,150,2013-02-10 09:53:00
5:53 AM,27.0,17.1,66,30.25,10.0,SSE,19.6,25.3,N/A,,Clear,150,2013-02-10 10:53:00
6:53 AM,27.0,17.1,66,30.24,10.0,SSE,15.0,-,N/A,,Clear,150,2013-02-10 11:53:00
7:53 AM,27.0,17.1,66,30.24,10.0,SSE,17.3,23.0,N/A,,Scattered Clouds,150,2013-02-10 12:53:00
8:53 AM,28.9,18.0,64,30.22,10.0,SSE,10.4,20.7,N/A,,Clear,150,2013-02-10 13:53:00
9:53 AM,32.0,18.0,56,30.16,10.0,SSE,12.7,21.9,N/A,,Scattered Clouds,150,2013-02-10 14:53:00
10:53 AM,35.1,19.0,52,30.18,10.0,SSE,15.0,25.3,N/A,,Clear,160,2013-02-10 15:53:00
11:53 AM,41.0,19.0,41,30.14,10.0,SSE,18.4,27.6,N/A,,Partly Cloudy,150,2013-02-10 16:53:00
12:53 PM,46.0,19.9,35,30.09,10.0,SSE,13.8,-,N/A,,Clear,160,2013-02-10 17:53:00
1:53 PM,48.0,21.0,34,30.05,10.0,SSE,12.7,-,N/A,,Mostly Cloudy,160,2013-02-10 18:53:00
2:53 PM,48.0,21.0,34,30.04,10.0,SSE,9.2,-,N/A,,Overcast,150,2013-02-10 19:53:00
3:53 PM,46.0,21.9,39,30.01,10.0,SSE,16.1,21.9,N/A,,Overcast,160,2013-02-10 20:53:00
4:53 PM,45.0,21.9,40,30.00,10.0,SSE,12.7,-,N/A,,Overcast,150,2013-02-10 21:53:00
5:53 PM,45.0,21.9,40,29.98,10.0,SSE,10.4,-,N/A,,Overcast,150,2013-02-10 22:53:00
6:53 PM,45.0,21.9,40,29.94,10.0,SE,13.8,21.9,N/A,,Overcast,140,2013-02-10 23:53:00
7:53 PM,45.0,23.0,42,29.91,10.0,SSE,11.5,20.7,N/A,,Overcast,150,2013-02-11 00:53:00
8:53 PM,46.0,24.1,42,29.88,10.0,SSE,12.7,-,N/A,,Overcast,150,2013-02-11 01:53:00
9:53 PM,46.0,24.1,42,29.84,10.0,SSE,16.1,24.2,N/A,,Overcast,150,2013-02-11 02:53:00
10:53 PM,48.0,26.1,42,29.82,10.0,SSE,20.7,31.1,N/A,,Overcast,160,2013-02-11 03:53:00
11:53 PM,46.9,30.9,54,29.79,10.0,South,21.9,31.1,N/A,,Overcast,170,2013-02-11 04:53:00